Theta_e
334 342 349 350 346 342 341 344 345 346 346 345 345 345 345 346 345 345 346 347 347 346 346 345 344 342 340 341 339 338 337 337 337 335 335 335 333 335 334 333 333 327 333
338 344 347 349 347 344 344 346 347 348 347 347 345 346 345 345 344 343 343 345 345 345 343 342 342 340 340 340 339 337 336 335 335 335 334 336 336 336 335 333 336 328 332
340 343 346 347 347 345 345 347 348 348 346 346 347 346 346 345 343 341 341 343 344 344 343 340 340 339 338 336 336 335 336 335 334 333 332 324 325 334 334 334 334 332 332
341 344 345 344 347 345 345 347 348 347 346 345 344 345 345 343 341 340 339 341 341 343 342 339 339 338 336 335 337 337 336 334 333 330 323 323 326 333 333 333 333 333 333
340 344 343 344 347 345 345 347 347 346 347 345 342 341 342 342 340 339 339 340 339 340 340 338 337 336 334 334 336 338 336 333 331 326 322 321 321 328 330 331 330 331 331
340 342 342 346 347 345 344 347 347 346 345 342 342 341 339 340 342 340 339 337 339 337 337 336 334 334 332 332 332 336 335 333 329 323 322 323 321 329 329 328 329 329 330
339 341 344 344 346 346 346 347 346 345 345 344 344 341 340 341 341 341 340 338 337 334 334 334 332 331 330 330 329 329 329 328 319 318 318 319 321 329 329 328 327 327 327
338 341 343 338 340 343 345 345 345 344 345 344 342 340 340 340 340 340 338 336 334 333 333 333 331 330 328 327 326 326 326 321 316 315 316 318 327 329 329 329 329 329 329
340 341 341 340 338 336 339 340 341 342 342 341 340 339 338 337 337 337 338 337 334 333 333 332 330 329 327 326 326 325 325 322 313 313 314 315 323 329 327 326 328 329 330
338 338 338 338 338 338 337 333 335 337 338 338 337 334 332 332 332 332 331 335 335 334 333 331 329 327 327 327 327 326 324 320 313 314 313 313 326 329 328 327 327 328 329
335 334 337 337 337 336 335 331 331 332 332 332 330 328 327 328 328 327 328 333 336 335 333 330 328 327 328 325 325 324 322 317 315 315 313 320 326 328 329 329 329 328 328
330 331 334 336 336 334 337 334 333 332 331 329 328 325 326 325 325 327 324 328 331 331 332 331 329 329 323 318 317 320 317 317 316 315 314 323 328 330 330 330 331 331 331
329 329 333 334 335 332 334 334 331 330 328 328 326 323 321 321 321 322 323 324 323 321 322 325 322 320 317 316 316 316 316 316 315 315 318 322 327 330 330 331 332 333 333
328 329 332 333 333 331 332 333 329 329 327 326 326 323 320 318 317 317 320 320 319 318 317 318 316 316 316 316 316 317 316 315 315 316 317 319 323 329 332 332 333 334 333
327 329 331 333 333 331 331 332 329 328 327 327 325 324 322 319 317 317 316 318 317 316 316 315 314 315 315 316 317 316 316 315 316 316 317 316 321 327 331 333 334 335 336
328 329 331 333 333 332 330 332 330 328 328 327 326 325 323 321 319 318 317 316 316 316 316 315 315 315 315 315 316 316 316 316 317 317 318 318 321 324 328 330 332 334 336
327 329 329 331 334 332 330 330 330 330 330 328 328 327 325 323 320 319 318 317 317 317 316 316 315 314 314 315 315 317 317 318 318 318 318 318 319 320 322 327 330 333 334
325 327 329 332 331 333 330 331 331 330 330 330 329 329 327 325 323 320 319 318 319 318 317 316 315 315 317 318 315 316 317 318 317 317 317 317 317 318 320 324 327 329 331
324 326 327 329 330 331 331 332 332 332 332 331 332 332 331 328 325 322 320 320 320 318 318 318 320 320 319 318 319 319 317 316 316 318 317 317 317 318 318 321 319 319 326
324 326 327 327 329 330 331 332 333 333 333 333 332 331 331 331 329 326 324 323 323 322 321 321 320 320 320 319 319 318 315 315 315 314 314 316 316 317 317 316 316 315 321
324 325 326 326 327 328 325 325 328 327 329 329 330 330 330 329 329 327 326 325 325 323 322 322 321 320 319 321 317 314 313 312 310 312 312 314 315 315 315 314 315 314 315
323 324 326 327 327 328 329 328 326 326 327 330 330 330 330 329 328 327 326 326 326 324 323 322 322 320 320 320 315 310 304 307 310 311 312 313 312 314 314 312 310 310 310
301 303 308 322 327 328 328 326 326 327 329 329 329 328 329 330 329 328 327 327 327 326 324 324 323 321 319 319 318 314 305 301 304 309 310 311 312 313 312 310 305 303 303
295 299 302 311 326 327 327 327 327 326 324 327 329 329 329 330 330 329 329 328 328 327 326 325 325 323 321 318 316 318 317 313 310 305 310 310 312 309 307 305 301 300 300
292 294 297 303 307 311 318 327 328 327 328 326 326 327 328 329 330 330 330 329 328 327 326 325 323 323 323 321 318 315 315 315 315 313 307 308 308 306 302 302 300 297 297
289 290 293 296 299 305 310 313 317 325 324 323 325 325 325 326 327 325 327 328 327 326 325 325 325 324 323 323 321 318 317 315 314 313 310 310 305 300 299 298 296 295 293
Wind_Speed
6 7 17 19 19 18 17 17 16 15 15 16 16 17 17 16 17 16 16 15 11 15 17 19 18 18 18 18 18 18 16 15 14 14 14 14 15 14 14 13 12 7 15
13 9 14 19 18 17 16 16 15 16 16 16 16 16 16 17 17 17 15 15 12 16 18 16 16 17 17 17 17 16 15 14 13 13 13 11 11 10 12 12 10 10 12
16 10 12 17 18 17 17 15 15 16 17 17 17 16 18 18 18 17 15 13 15 16 19 15 15 16 15 14 11 8 12 12 12 12 11 5 4 10 12 13 12 11 12
15 11 13 16 18 17 17 14 15 17 17 17 17 17 17 17 17 16 14 13 13 14 16 14 14 14 14 13 11 10 12 11 11 11 5 5 6 10 10 10 10 10 10
14 10 12 16 18 17 16 14 15 15 17 17 16 15 15 15 15 16 14 13 13 12 15 13 13 14 13 13 13 12 13 11 10 8 5 5 4 7 9 8 8 8 9
12 10 14 17 17 17 15 13 15 15 15 16 15 14 14 14 14 14 14 11 11 14 12 13 12 13 12 13 12 12 10 9 8 5 5 5 4 7 7 7 7 7 7
10 10 14 16 17 16 15 13 14 15 16 15 14 14 14 13 12 13 15 12 9 11 13 11 11 11 11 11 12 12 9 8 5 4 4 4 4 6 6 6 6 6 6
12 9 12 13 13 14 13 12 13 15 15 14 13 13 12 11 10 14 16 14 11 11 10 9 9 9 9 10 11 10 10 7 4 3 3 3 6 5 5 4 5 5 5
10 9 9 10 11 12 11 11 12 14 13 13 13 12 11 9 8 8 13 12 11 10 9 7 7 7 8 9 9 9 9 7 4 3 3 2 5 6 6 5 6 6 5
11 12 8 8 8 8 7 11 12 11 11 11 10 9 9 8 7 7 8 10 11 9 7 6 4 5 6 8 8 8 8 6 4 3 3 3 7 7 7 7 7 7 7
10 11 8 8 8 7 6 7 10 11 11 10 9 8 7 4 5 6 5 8 10 8 7 5 3 3 5 7 7 7 6 2 3 2 2 7 8 8 8 8 8 8 8
12 10 10 9 9 7 6 7 5 6 4 5 5 5 4 5 4 4 4 7 8 6 6 4 2 3 5 3 3 5 2 3 2 3 3 8 10 8 8 9 9 8 8
11 10 10 11 9 7 5 4 3 3 3 4 6 5 4 4 3 3 2 2 2 3 1 1 2 1 1 2 2 3 3 2 2 2 4 8 9 9 9 10 10 11 10
12 13 11 11 11 6 5 4 4 3 3 3 4 6 4 3 3 3 3 4 3 2 2 1 1 1 2 2 3 4 4 3 2 2 4 7 9 9 10 10 11 12 11
13 13 13 11 11 7 7 5 4 4 4 4 4 5 4 4 4 4 3 3 3 3 3 3 2 2 3 3 3 4 5 5 4 3 3 8 8 9 10 10 11 12 12
13 14 13 10 12 8 7 9 6 4 4 4 4 4 6 4 4 4 4 4 4 4 3 3 3 2 3 2 4 4 5 4 5 5 3 4 8 9 9 10 12 12 13
10 12 14 12 10 11 7 6 5 5 5 5 4 5 6 5 5 5 4 4 4 3 3 2 2 1 2 2 5 4 4 5 5 5 4 4 4 6 8 10 10 10 10
7 11 11 10 13 11 8 7 5 5 5 5 5 4 7 6 6 5 4 4 4 3 3 3 3 3 3 3 3 4 4 4 5 4 4 4 3 3 4 8 8 7 7
10 10 9 9 13 11 9 7 7 8 6 6 5 5 7 7 7 5 4 4 4 3 3 3 3 3 3 3 3 3 3 4 5 3 6 5 4 3 3 5 7 9 9
7 8 10 9 10 10 6 6 5 6 6 5 5 5 7 6 8 7 5 5 4 3 3 3 4 3 3 2 3 4 4 4 4 3 4 2 2 3 3 3 4 4 12
8 7 9 10 9 8 4 4 4 5 4 5 5 8 7 7 8 8 5 5 5 5 6 6 3 4 3 2 1 4 4 3 3 2 1 1 4 4 4 5 4 4 7
2 5 7 9 9 9 7 6 3 3 3 5 6 7 7 7 8 7 7 7 7 5 5 5 4 2 2 3 2 2 3 4 3 3 2 4 5 4 7 8 9 10 8
8 7 5 3 7 6 6 3 2 2 2 2 2 3 5 7 7 8 8 7 6 6 6 6 5 6 3 3 5 3 0 3 2 2 4 4 6 6 7 9 10 10 10
8 7 7 7 2 5 6 6 9 6 5 4 6 6 7 10 9 9 8 8 7 5 6 6 6 6 4 5 2 4 3 3 3 3 1 4 7 7 8 7 8 10 9
9 9 8 8 10 9 7 4 6 7 4 1 2 4 4 5 8 8 8 8 7 6 6 7 6 7 7 7 5 3 4 3 3 4 3 3 4 6 7 7 8 7 9
9 10 9 9 10 10 8 8 5 3 4 3 3 3 3 2 0 3 2 3 5 5 6 7 9 9 9 8 6 5 5 4 5 4 4 3 5 4 6 6 7 7 7
Wind_Direction
177 159 152 143 139 134 135 132 128 128 122 127 128 125 122 115 102 101 99 94 102 102 92 88 90 94 92 90 87 85 83 80 77 79 74 79 81 83 78 65 73 58 59
140 151 149 144 140 137 138 135 131 127 120 121 132 125 124 117 110 102 97 92 92 107 97 96 97 96 94 91 90 86 84 85 82 69 60 59 68 64 87 81 74 75 63
138 144 148 142 141 138 139 137 131 128 120 112 115 115 120 116 108 103 99 96 94 103 102 98 97 95 90 84 87 86 95 92 84 72 58 41 60 72 69 54 62 52 63
137 142 145 141 140 139 140 139 132 131 124 112 110 111 113 112 112 108 106 105 103 94 97 98 97 93 83 74 75 92 114 98 86 74 56 40 24 66 65 64 61 54 48
137 138 142 142 140 142 144 142 136 133 126 123 118 118 118 118 116 112 111 112 113 102 97 104 97 92 82 78 75 88 112 97 82 71 63 55 33 66 67 63 52 45 40
135 128 143 143 143 145 146 145 137 138 129 132 129 124 123 122 119 119 113 104 111 123 109 99 94 92 86 84 79 88 104 90 75 58 47 29 27 65 64 61 54 45 35
135 133 144 143 144 145 147 147 141 143 135 133 133 130 130 131 133 127 118 108 108 112 104 101 96 93 88 81 78 78 78 79 73 56 35 21 350 47 49 47 44 37 23
142 139 140 136 137 142 145 145 149 146 136 134 134 132 132 130 121 132 121 120 115 112 108 100 94 87 79 73 68 61 64 71 57 41 26 1 330 3 28 21 14 9 4
140 135 135 138 139 136 135 134 139 137 137 135 137 135 133 127 115 97 128 129 125 122 113 103 89 74 71 64 59 56 49 50 53 12 346 328 316 329 355 353 346 340 329
145 149 136 132 134 134 141 137 137 138 134 134 136 135 135 131 126 111 106 115 131 130 124 113 96 75 57 51 45 43 42 46 22 348 345 308 307 313 332 343 338 329 325
147 156 148 140 131 129 133 145 140 138 137 137 133 130 121 120 127 124 131 131 131 133 140 134 117 79 54 31 27 23 31 20 1 335 329 310 316 304 315 331 338 330 321
154 158 162 152 147 133 143 146 136 136 136 134 129 129 137 142 141 141 148 158 135 149 149 155 154 73 53 23 4 12 359 329 336 323 313 316 329 314 308 318 326 327 320
156 162 170 164 156 138 140 145 130 132 135 138 139 137 124 112 116 119 122 92 106 105 50 96 48 50 15 9 346 334 325 317 316 312 305 313 320 323 317 317 317 316 316
166 169 168 170 165 142 138 153 142 144 143 146 156 152 143 144 149 145 151 161 159 166 181 187 220 277 308 298 293 304 304 298 291 291 293 301 309 313 312 313 313 313 314
171 171 178 169 171 157 153 149 143 154 156 160 161 167 153 162 169 159 172 171 181 175 189 205 222 254 275 293 288 278 285 286 285 278 280 286 289 297 305 313 313 311 315
169 170 178 175 179 161 161 175 166 155 162 162 170 179 177 171 171 181 177 191 198 195 198 208 217 229 258 273 284 273 272 277 275 273 273 290 282 290 302 310 309 310 309
177 163 177 179 176 173 163 163 169 177 169 176 187 183 185 179 183 184 189 196 208 194 202 222 254 262 283 281 274 278 272 269 261 268 283 283 290 291 291 301 306 314 313
158 171 169 177 185 175 169 169 169 176 180 190 187 185 188 189 184 184 195 215 201 185 188 208 216 240 241 233 255 272 254 247 282 284 288 289 291 292 302 308 320 328 349
170 164 169 175 184 179 175 176 187 191 191 200 197 193 197 188 182 182 200 217 185 194 202 204 217 218 240 252 259 283 318 290 285 294 291 305 316 300 303 324 4 27 23
165 172 171 176 181 180 176 185 190 185 190 184 185 191 186 188 190 186 193 205 186 185 205 195 220 224 240 260 289 299 294 284 285 278 291 311 311 345 34 38 32 40 42
164 162 178 178 182 168 161 166 183 187 181 188 181 190 187 185 184 185 188 199 178 197 206 204 197 230 260 211 314 334 310 326 344 8 41 65 29 29 43 36 38 48 56
165 203 199 195 183 185 185 186 169 171 191 188 189 187 189 185 180 188 188 199 196 195 211 193 189 201 229 179 155 106 330 332 347 353 35 49 46 47 55 60 60 51 45
39 18 351 284 208 202 160 140 120 97 82 124 161 181 189 188 189 192 196 198 195 193 204 204 197 199 221 217 210 173 161 245 311 336 35 52 61 63 63 64 61 59 55
11 9 17 0 245 192 186 182 207 197 198 190 183 191 192 193 200 197 197 196 204 199 204 203 200 208 199 224 200 242 205 168 211 313 28 72 67 64 59 63 58 57 55
9 9 11 24 31 11 351 212 210 226 240 173 148 168 197 208 202 201 197 199 208 205 206 202 196 205 204 220 205 162 219 208 241 209 231 159 93 76 67 67 70 58 46
11 10 15 23 35 13 8 2 352 259 201 185 187 201 221 224 187 28 313 224 217 212 210 214 218 214 216 221 216 196 186 177 194 189 217 190 119 78 84 74 65 72 59